NOAA Logo National Centers for Environmental Information

formerly the National Oceanographic Data Center (NODC)...  more on NCEI

NOAA Satellite and Information Service

CRUISE INFORMATION RECORD AND DATA
 
NODC Cruise 74-11789 Information
WOD CRUISE REFERENCE #74011789
DATA:
in WOD format 74011789_XBT.dat
74011789_CTD.dat
in 'csv' format 74011789_XBT.csv
74011789_CTD.csv
METADATA:
COUNTRYUNITED KINGDOM (74)
NODC ACCESSION NUMBER (XBT)14934
NODC ACCESSION NUMBER (CTD)46839
SHIP NAME (14934)HECLA
INSTITUTE (46839)XXXXXX
ORIGINATORS CRUISE CODE (CTD)HI710
DATE OF FIRST CAST3/26/1996
DATE OF LAST CAST7/ 4/1996
TOTAL NUMBER OF CASTS528
Temperature [t] PROFILES528
Salinity [s] PROFILES26
UNIQUE CAST #LATITUDELONGITUDEDATETIMEPROBE TYPE
1099131649.950-4.3833/26/199618.233XBT
1099131749.183-5.7333/27/19960.167XBT
1099131948.183-6.8503/27/19966.283XBT
1099132247.150-7.8673/27/199612.083XBT
1099132546.033-8.5333/27/199618.167XBT
1099132445.900-8.5833/27/199618.617XBT
1099132844.783-9.1503/28/19960.100XBT
1099133043.617-9.7003/28/19966.183XBT
1099133142.383-10.0333/28/199612.083XBT
1099133340.217-10.6503/28/199623.933XBT
1099133438.900-11.0003/29/19965.933XBT
1099133737.800-11.2833/29/199611.967XBT
1099133837.500-11.4173/29/199613.283XBT
1099133937.133-11.4503/29/199617.933XBT
1099134436.167-11.6833/30/19960.050XBT
1099134636.400-11.4503/30/19966.150XBT
1099134836.383-12.0003/30/199612.183XBT
1099135036.317-11.2673/30/199617.983XBT
1099135536.700-10.1833/31/19965.983XBT
1099135836.483-9.0003/31/199611.817XBT
1099138135.967-6.1834/3/199612.050XBT
1099138336.467-7.7004/3/199618.083XBT
1099138537.017-9.1504/4/19960.033XBT
1099138637.700-10.5174/4/19966.033XBT
1099138838.267-11.5834/4/199611.950XBT
1099139038.917-12.8504/4/199617.967XBT
1099139239.467-13.9174/4/199623.967XBT
1099139439.983-14.9834/5/19966.600XBT
1099139540.000-15.6334/5/199611.983XBT
1099139740.000-16.3334/5/199614.717XBT
1099139840.000-16.8834/5/199616.867XBT
1099139940.000-17.3834/5/199618.833XBT
1099140040.000-18.6004/6/19962.983XBT
1099140140.000-18.6674/6/19963.250XBT
1099140240.000-18.9674/6/19964.600XBT
1099140439.983-19.5334/6/19967.050XBT
1099140540.000-19.9504/6/19968.983XBT
1099140640.000-20.0004/6/199611.850XBT
1099140940.000-20.6504/6/199618.067XBT
1099141140.000-21.3004/6/199620.567XBT
1099141240.000-21.9834/6/199623.067XBT
1099141340.000-22.4674/7/19960.967XBT
1099141640.000-23.0834/7/19965.817XBT
1099141840.000-23.7004/7/19968.983XBT
1099142040.000-24.5004/7/199613.050XBT
1099142140.000-24.9674/7/199615.550XBT
1099142540.000-25.6174/7/199622.117XBT
1099142640.000-25.7004/7/199622.500XBT
1099142940.000-26.3504/8/19961.883XBT
1099143040.000-26.4004/8/19962.150XBT
1099143240.000-26.9334/8/19965.033XBT
1099143440.000-27.4674/8/19967.850XBT
1099143739.700-27.3004/8/199612.033XBT
1099143939.100-26.8834/8/199618.067XBT
1099144138.467-26.8834/9/19960.017XBT
1099144837.850-26.0334/9/19966.050XBT
1099146137.717-26.1334/10/199612.617XBT
1099146537.717-27.5834/10/199617.983XBT
1099146937.783-29.1834/11/19960.050XBT
1099150038.117-30.5834/14/19966.150XBT
1099150338.333-31.9674/14/199612.033XBT
1099150438.533-33.4004/14/199617.950XBT
1099150738.717-34.7834/14/199623.883XBT
1099151139.150-37.5504/15/199611.983XBT
1099151339.150-37.6174/15/199612.150XBT
1099151539.350-39.0504/15/199617.900XBT
1099151839.550-40.6004/15/199623.617XBT
1099152139.600-42.3174/16/19966.083XBT
1099152539.650-43.8504/16/199611.950XBT
1099152839.717-45.3834/16/199617.850XBT
1099153039.817-46.8004/16/199623.867XBT
1099153439.833-48.3174/17/19966.017XBT
1099153639.917-49.8834/17/199611.933XBT
1099154239.850-51.4334/17/199617.933XBT
1099154439.850-51.5174/17/199618.150XBT
1099154539.783-52.9334/17/199623.683XBT
1099154639.700-54.7674/18/19965.883XBT
1099154739.633-56.2504/18/199611.867XBT
1099155139.550-57.9334/18/199617.833XBT
1099155439.483-59.5334/18/199623.850XBT
1099155639.333-60.7174/19/19965.983XBT
1099155939.133-61.9004/19/199611.883XBT
1099156338.900-63.2504/19/199617.867XBT
1099156938.650-64.7834/19/199623.900XBT
1099157238.367-66.3504/20/19965.850XBT
1099157638.033-67.7004/20/199611.883XBT
1099158237.650-68.9174/20/199618.050XBT
1099158537.433-69.8674/20/199623.867XBT
1099158837.300-70.8334/21/19965.933XBT
1099159437.183-71.8674/21/199612.167XBT
1099159837.050-73.3334/21/199618.250XBT
1099160036.950-74.2504/21/199623.867XBT
1099166836.800-75.8334/25/199616.067XBT
1099168136.817-75.8504/26/199611.567XBT
1099169536.483-75.3004/27/19960.383XBT
1099170734.700-75.4504/27/199612.067XBT
1099172435.417-75.0004/29/19965.983XBT
1099173434.267-76.6334/29/199617.950XBT
1099175934.517-77.2335/1/199611.517XBT
1099188133.750-77.1675/8/19960.050XBT
1099191134.500-77.2835/10/199610.150XBT
1099193034.083-76.7505/11/199623.933XBT
1099193234.117-76.5005/12/19960.933XBT
1099193434.150-76.2675/12/19961.917XBT
1099193634.183-76.0175/12/19962.967XBT
1099193934.233-75.8005/12/19964.017XBT
1099194034.283-75.5675/12/19964.850XBT
1099194234.350-75.3175/12/19965.883XBT
1099194434.400-75.0175/12/19966.867XBT
1099194634.450-74.7335/12/19968.017XBT
1099194834.450-74.5005/12/19969.000XBT
1099194734.450-74.4505/12/19969.183XBT
1099194934.467-74.2675/12/19969.967XBT
1099195434.500-74.0175/12/199611.017XBT
1099195734.533-73.7675/12/199612.067XBT
1099195834.550-73.6175/12/199613.017XBT
1099196134.583-73.4505/12/199614.000XBT
1099196234.617-73.2675/12/199615.183XBT
1099196434.633-73.1335/12/199616.017XBT
1099196534.667-73.0005/12/199616.950XBT
1099196734.733-72.9675/12/199617.933XBT
1099196934.867-73.1175/12/199618.933XBT
1099197235.000-73.2505/12/199619.950XBT
1156390435.040-73.2925/12/199620.417CTD
1099197435.067-73.3335/12/199623.000XBT
1099197535.167-73.4335/13/19960.017XBT
1099197735.283-73.5335/13/19961.067XBT
1099197835.383-73.6175/13/19962.050XBT
1099197935.500-73.6835/13/19963.017XBT
1099198035.583-73.7835/13/19963.983XBT
1099198135.650-73.8675/13/19964.950XBT
1099198235.733-73.9335/13/19965.950XBT
1099198435.800-74.0005/13/19966.967XBT
1099198535.867-74.0835/13/19967.900XBT
1099198736.067-74.3005/13/19969.933XBT
1099198836.150-74.4005/13/199610.917XBT
1156390536.150-74.4225/13/199611.250CTD
1156390636.142-74.4325/13/199612.467CTD
1099199235.950-74.2175/13/199615.117XBT
1099199435.817-74.0005/13/199616.017XBT
1156390735.687-73.8925/13/199617.150CTD
1099199835.667-73.7835/13/199619.033XBT
1099200035.483-73.6675/13/199620.133XBT
1099199935.350-73.5675/13/199620.983XBT
1099200135.350-73.5675/13/199621.983XBT
1156390835.082-73.2425/13/199623.367CTD
1099200335.083-73.2505/13/199623.533XBT
1099200435.083-73.2505/13/199623.733XBT
1099200835.133-73.3005/14/19961.883XBT
1099200935.233-73.4505/14/19962.933XBT
1099201135.333-73.5675/14/19963.917XBT
1099201235.483-73.7175/14/19965.017XBT
1099201435.633-73.8675/14/19966.133XBT
1099201535.750-73.9675/14/19967.033XBT
1099201836.050-74.2835/14/19969.983XBT
1099201936.133-74.3835/14/199610.883XBT
1156390936.162-74.3955/14/199611.117CTD
1099202336.233-74.4835/14/199612.983XBT
1099202436.400-74.6335/14/199613.933XBT
1099202536.550-74.7835/14/199614.917XBT
1099202636.500-74.7335/14/199615.550XBT
1156391036.075-74.1425/14/199616.317CTD
1099202736.367-74.6005/14/199616.433XBT
1099202936.233-74.4505/14/199617.383XBT
1156391136.073-74.1505/14/199617.950CTD
1099203136.067-74.2675/14/199618.500XBT
1099203336.067-74.1335/14/199619.017XBT
1156391236.075-74.2185/14/199619.483CTD
1099203436.083-74.0005/14/199619.550XBT
1099203536.083-74.1175/14/199619.917XBT
1099204035.800-73.9335/15/19963.033XBT
1099204335.367-73.6005/15/19965.983XBT
1099204535.117-73.3335/15/19967.933XBT
1099204734.983-73.1835/15/19969.033XBT
1099204634.850-73.0675/15/19969.983XBT
1099204834.717-72.9505/15/199610.983XBT
1099205134.567-72.8005/15/199612.150XBT
1099205534.450-72.7005/15/199613.067XBT
1099205734.317-72.5675/15/199614.017XBT
1099205634.233-72.4835/15/199614.933XBT
1099205934.133-72.3505/15/199616.117XBT
1099206034.017-72.2005/15/199617.067XBT
1099206233.917-72.0505/15/199618.000XBT
1099206433.767-71.8675/15/199619.000XBT
1099206333.700-71.7835/15/199619.500XBT
1099206733.617-71.7005/15/199620.017XBT
1099206633.583-71.6335/15/199620.283XBT
1099206533.550-71.6005/15/199620.500XBT
1156391333.623-71.6905/15/199621.233CTD
1099207233.733-71.8335/15/199623.033XBT
1156391433.760-71.8685/15/199623.383CTD
1099207633.800-71.9175/16/19961.083XBT
1099207733.867-71.9835/16/19961.950XBT
1099207833.950-72.1005/16/19962.950XBT
1099207934.050-72.2005/16/19963.983XBT
1099208034.117-72.3175/16/19964.983XBT
1099208234.200-72.4175/16/19965.950XBT
1099208334.283-72.5175/16/19966.983XBT
1099208534.367-72.6335/16/19967.983XBT
1099208734.483-72.7505/16/19969.017XBT
1099208834.500-72.7675/16/19969.267XBT
1099208934.583-72.8335/16/19969.950XBT
1099209034.717-72.9505/16/199611.083XBT
1156391534.715-72.9475/16/199611.283CTD
1099209334.800-73.0675/16/199613.950XBT
1099209434.850-73.1175/16/199614.117XBT
1099209534.950-73.1835/16/199615.933XBT
1099209635.100-73.3175/16/199616.950XBT
1099209835.250-73.4835/16/199617.967XBT
1099210035.467-73.7175/16/199619.400XBT
1099210135.633-73.8675/16/199620.433XBT
1156391635.680-73.8955/16/199620.833CTD
1099210235.767-73.9335/16/199622.017XBT
1099210535.850-74.0335/16/199623.000XBT
1099210635.933-74.1335/16/199623.983XBT
1099210836.033-74.2505/17/19960.950XBT
1099211236.133-74.3505/17/19962.017XBT
1099211336.250-74.4675/17/19962.967XBT
1099211436.383-74.6005/17/19964.100XBT
1099211536.467-74.7005/17/19965.050XBT
1099211836.400-74.6335/17/19966.050XBT
1099211736.350-74.5675/17/19966.950XBT
1099212036.267-74.4835/17/19968.017XBT
1099212136.200-74.4335/17/19969.050XBT
1099212336.133-74.3835/17/199610.050XBT
1099212536.067-74.2835/17/199611.017XBT
1156391736.077-74.2835/17/199611.450CTD
1099212636.033-74.2335/17/199613.183XBT
1099212936.217-74.5335/17/199618.167XBT
1099213234.417-75.3675/18/19960.067XBT
1099213534.067-76.3505/18/19965.933XBT
1099214034.183-76.0175/19/19960.017XBT
1099214134.050-74.8005/19/19966.133XBT
1099214235.683-74.0675/19/199611.967XBT
1156391835.690-73.9025/19/199613.250CTD
1156391935.672-73.9205/19/199616.033CTD
1099214435.783-73.9005/19/199618.017XBT
1099214636.150-74.6005/19/199623.933XBT
1099214736.450-75.1005/20/19966.033XBT
1099217136.750-75.0675/28/199618.000XBT
1099217236.633-74.6175/28/199620.050XBT
1099217336.517-74.1835/28/199621.900XBT
1099217436.350-73.5505/29/19960.400XBT
1099217536.233-73.1175/29/19962.150XBT
1099217635.983-72.2505/29/19964.950XBT
1099217735.917-72.0005/29/19965.850XBT
1099217935.800-71.6505/29/19967.300XBT
1099218035.733-71.3175/29/19968.717XBT
1099218335.650-71.0505/29/19969.867XBT
1099218735.550-70.7005/29/199611.250XBT
1099218635.550-70.6675/29/199611.383XBT
1099218835.483-70.4675/29/199612.117XBT
1099219035.417-70.2175/29/199613.267XBT
1099219135.333-69.9175/29/199614.283XBT
1099219235.267-69.6675/29/199615.300XBT
1099219335.167-69.3335/29/199616.600XBT
1099219435.083-69.0005/29/199617.833XBT
1099219534.983-68.6675/29/199619.117XBT
1099219634.883-68.3335/29/199620.383XBT
1099219834.783-68.0005/29/199621.650XBT
1099219934.700-67.6675/29/199622.967XBT
1099220034.600-67.3335/30/19960.283XBT
1099220134.517-67.0005/30/19961.500XBT
1099220234.450-66.6675/30/19962.783XBT
1099220334.383-66.3335/30/19963.933XBT
1099220434.300-66.0005/30/19965.150XBT
1099220534.250-65.7505/30/19966.083XBT
1099220634.167-65.3335/30/19967.650XBT
1099220834.100-65.0005/30/19968.817XBT
1099220934.017-64.6675/30/199610.117XBT
1099221033.933-64.3335/30/199611.383XBT
1099221133.867-64.0005/30/199612.650XBT
1099221233.800-63.6675/30/199613.917XBT
1099221333.750-63.3335/30/199615.133XBT
1099221433.683-63.0005/30/199616.367XBT
1099221533.600-62.6835/30/199617.667XBT
1099221633.533-62.3335/30/199618.850XBT
1099221833.467-62.0005/30/199620.000XBT
1099221933.400-61.6675/30/199621.200XBT
1099222033.317-61.3335/30/199622.433XBT
1099222133.217-61.0005/30/199623.783XBT
1099222233.133-60.6675/31/19961.100XBT
1099222333.050-60.3335/31/19962.350XBT
1099222432.967-60.0005/31/19963.600XBT
1099222532.867-59.6675/31/19964.950XBT
1099222632.767-59.3335/31/19966.333XBT
1099222732.667-59.0005/31/19967.650XBT
1099222832.567-58.6675/31/19969.033XBT
1099222932.500-58.4175/31/199610.117XBT
1156392032.503-58.3585/31/199610.533CTD
1099223032.533-58.3335/31/199613.050XBT
1099223132.517-58.0005/31/199614.317XBT
1099223232.500-57.6675/31/199615.567XBT
1099223332.500-57.3335/31/199616.783XBT
1099223432.500-57.0005/31/199617.967XBT
1099223732.500-56.6675/31/199619.233XBT
1099223832.500-56.3335/31/199620.400XBT
1099223932.500-56.0005/31/199621.617XBT
1099224032.500-55.6835/31/199622.800XBT
1099224132.500-55.3336/1/19960.217XBT
1099224332.500-55.0006/1/19961.483XBT
1099224432.500-54.3336/1/19963.983XBT
1099224532.500-53.9676/1/19965.383XBT
1099224732.517-53.6336/1/19966.583XBT
1099224932.500-53.3506/1/19967.733XBT
1099225032.500-53.0006/1/19969.083XBT
1099225132.500-52.6676/1/199610.317XBT
1099225232.500-52.3336/1/199611.517XBT
1099225332.500-52.0006/1/199612.717XBT
1099225432.500-51.6676/1/199613.933XBT
1099225532.500-51.3336/1/199615.150XBT
1099225632.500-50.6506/1/199617.633XBT
1099225932.500-50.3336/1/199618.833XBT
1099226132.500-50.0676/1/199619.867XBT
1156392132.498-50.0006/1/199620.217CTD
1099226232.500-49.9336/1/199622.950XBT
1099226332.500-49.6676/2/19960.000XBT
1099226432.500-49.3336/2/19961.317XBT
1099226532.500-49.0006/2/19962.683XBT
1099226632.500-48.6676/2/19964.050XBT
1099226832.500-48.3336/2/19965.350XBT
1099227032.500-48.0006/2/19966.700XBT
1099227132.500-47.3336/2/19969.267XBT
1099227232.500-47.0006/2/199610.550XBT
1099227332.500-46.6676/2/199611.833XBT
1099227532.500-46.3336/2/199613.067XBT
1099227732.517-46.0006/2/199614.367XBT
1099227632.500-45.9506/2/199614.533XBT
1099227832.500-45.6676/2/199615.583XBT
1099227932.500-45.3336/2/199616.817XBT
1099228032.500-45.1006/2/199617.683XBT
1156392232.500-44.9926/2/199618.167CTD
1099228232.517-44.9836/2/199620.167XBT
1099228332.500-44.6676/2/199621.367XBT
1099228432.500-44.3336/2/199622.683XBT
1099228532.500-44.0006/2/199623.850XBT
1099228732.500-43.6676/3/19961.217XBT
1099228832.500-43.3336/3/19962.533XBT
1099228932.500-43.0006/3/19963.867XBT
1099229032.500-42.6676/3/19965.133XBT
1099229132.500-42.3336/3/19966.400XBT
1099229332.500-42.0006/3/19967.717XBT
1099229432.500-41.9176/3/19968.117XBT
1156392332.497-41.8706/3/19968.350CTD
1099229532.500-41.7836/3/199610.933XBT
1099229632.500-41.3506/3/199612.483XBT
1099229832.500-41.0006/3/199613.933XBT
1099229932.500-40.3506/3/199616.550XBT
1099230032.500-40.0676/3/199617.883XBT
1156392432.500-40.0026/3/199618.433CTD
1099230232.483-40.0176/3/199620.500XBT
1099230332.483-39.6676/3/199622.183XBT
1099230432.500-39.3336/3/199623.783XBT
1099230532.500-39.0006/4/19961.233XBT
1099230632.167-39.0006/4/19962.850XBT
1099230731.833-39.0006/4/19964.483XBT
1099230832.000-38.7676/4/19966.050XBT
1099230932.150-38.6006/4/19967.050XBT
1099231032.317-38.4176/4/19968.050XBT
1099231132.483-38.5006/4/19969.050XBT
1099231232.667-38.6336/4/199610.050XBT
1099231332.750-38.7176/4/199611.050XBT
1099231532.933-38.8676/4/199612.050XBT
1099231633.100-39.0006/4/199613.067XBT
1099231833.267-39.1506/4/199614.117XBT
1099231933.400-39.2836/4/199614.950XBT
1099232233.267-39.5006/4/199616.050XBT
1099232133.050-39.5336/4/199616.967XBT
1099232432.883-39.3836/4/199618.083XBT
1099232632.817-39.2676/4/199620.033XBT
1156392532.795-39.2286/4/199620.500CTD
1099232832.700-39.0006/4/199623.667XBT
1099232932.600-38.6676/5/19961.083XBT
1099233032.500-38.3336/5/19962.433XBT
1099233132.517-38.0176/5/19963.750XBT
1099233232.500-37.6676/5/19965.033XBT
1099233432.500-37.4506/5/19966.033XBT
1099233532.500-37.0006/5/19967.783XBT
1099233732.500-36.6676/5/19969.417XBT
1099233832.500-36.3336/5/199610.933XBT
1099233932.500-36.0676/5/199612.133XBT
1156392632.505-36.0006/5/199612.567CTD
1099234032.500-35.9006/5/199615.217XBT
1099234132.500-35.6676/5/199616.133XBT
1099234232.500-35.3506/5/199617.467XBT
1099234332.500-34.6676/5/199620.200XBT
1099234532.500-34.3336/5/199621.533XBT
1099234632.500-34.0006/5/199622.850XBT
1099234732.500-33.6676/6/19960.167XBT
1099234832.500-33.3336/6/19961.517XBT
1099234932.500-33.0006/6/19962.867XBT
1099235032.500-32.6676/6/19964.167XBT
1099235132.500-32.3506/6/19965.400XBT
1099235232.500-32.0176/6/19966.750XBT
1156392732.497-31.9156/6/19967.350CTD
1099235632.500-31.3336/6/199612.233XBT
1099235732.567-31.0006/6/199613.700XBT
1099235932.833-30.3336/6/199616.683XBT
1099236032.950-30.0006/6/199618.183XBT
1099236133.100-29.6676/6/199619.667XBT
1099236333.183-29.3006/6/199621.283XBT
1099236433.250-28.9836/6/199622.517XBT
1099236533.350-28.6676/6/199623.783XBT
1099236633.450-28.3336/7/19961.183XBT
1099236733.550-28.0006/7/19962.500XBT
1099236833.650-27.6676/7/19963.800XBT
1099236933.767-27.3336/7/19965.100XBT
1099237133.867-27.0006/7/19966.400XBT
1099237233.983-26.6676/7/19967.650XBT
1099237434.083-26.3336/7/19968.933XBT
1099237534.200-26.0006/7/199610.317XBT
1099237634.300-25.6676/7/199611.667XBT
1099237834.400-25.3336/7/199613.000XBT
1099238034.567-24.6676/7/199615.567XBT
1099238134.650-24.3336/7/199616.850XBT
1099238334.783-23.6676/7/199619.400XBT
1099238434.850-23.3336/7/199620.650XBT
1099238534.917-23.0006/7/199621.950XBT
1099238635.000-22.6676/7/199623.267XBT
1099238835.067-22.3336/8/19960.550XBT
1099238935.133-22.0006/8/19961.833XBT
1099239035.183-21.6676/8/19963.100XBT
1099239135.267-21.3336/8/19964.400XBT
1099239235.333-21.0006/8/19965.683XBT
1099239335.417-20.6676/8/19966.800XBT
1099239535.467-20.3336/8/19967.983XBT
1099239735.533-20.0506/8/19969.050XBT
1156392835.527-19.9986/8/19969.417CTD
1099239935.600-19.6676/8/199612.900XBT
1099240135.667-19.3336/8/199614.317XBT
1099240335.750-19.0006/8/199615.850XBT
1099240535.850-18.6676/8/199617.300XBT
1099240635.917-18.3336/8/199618.717XBT
1099240935.917-18.0006/8/199620.033XBT
1099241035.900-17.6676/8/199621.400XBT
1099241135.917-17.3336/8/199622.733XBT
1099241435.917-16.6676/9/19961.383XBT
1099241735.917-16.3336/9/19962.800XBT
1099241835.900-15.8506/9/19964.850XBT
1156392935.902-15.8136/9/19965.000CTD
1099242035.900-15.6676/9/19967.467XBT
1099242335.900-15.3336/9/19968.733XBT
1099242435.900-15.0006/9/19969.967XBT
1099242635.900-14.6676/9/199611.150XBT
1099242835.900-14.0006/9/199613.617XBT
1099242935.900-13.6836/9/199614.733XBT
1099243035.900-13.3336/9/199616.067XBT
1099243135.900-13.0006/9/199617.400XBT
1099243236.083-12.6676/9/199618.950XBT
1099243336.217-12.3336/9/199620.350XBT
1099243536.350-12.0006/9/199621.617XBT
1099243636.467-11.6836/9/199622.800XBT
1099243836.633-11.3336/10/19960.433XBT
1099243936.717-11.0176/10/19961.767XBT
1099244136.583-10.6676/10/19963.217XBT
1099244236.433-10.3336/10/19964.517XBT
1099244336.267-10.0176/10/19965.867XBT
1099244536.100-9.6676/10/19967.383XBT
1099244936.250-9.3336/10/199616.317XBT
1099245036.183-9.0006/10/199617.500XBT
1099245236.117-8.6676/10/199618.750XBT
1099245436.067-8.3336/10/199619.950XBT
1099245536.000-8.0006/10/199621.133XBT
1099245635.933-7.6676/10/199622.367XBT
1099245735.900-7.3336/10/199623.567XBT
1099245835.900-7.0006/11/19960.883XBT
1099246235.917-5.6336/11/19966.067XBT
1099249336.000-4.6506/13/199612.100XBT
1099249236.000-4.5836/13/199612.417XBT
1099249436.100-3.0506/13/199617.917XBT
1099249836.333-1.4506/13/199623.983XBT
1099250036.6500.3006/14/19966.033XBT
1099250236.9501.8506/14/199611.867XBT
1099250537.2503.5176/14/199618.000XBT
1099250737.2505.2006/14/199623.967XBT
1099251037.3176.8676/15/19966.033XBT
1099251137.3338.6336/15/199611.967XBT
1099251337.48310.2836/15/199618.017XBT
1099251636.96711.7836/16/19960.083XBT
1099251736.48313.4506/16/19965.983XBT
1099251935.98315.0336/16/199611.983XBT
1099252135.58316.6006/16/199617.983XBT
1099252435.35018.0676/16/199623.983XBT
1099252535.10019.5176/17/19965.983XBT
1099252834.91720.7836/17/199612.000XBT
1099253334.70022.1506/17/199617.983XBT
1099253534.50023.5336/17/199623.967XBT
1099253834.50024.9836/18/19966.050XBT
1099254334.51726.1176/18/199612.017XBT
1099254534.80027.4676/18/199617.933XBT
1099254835.31728.6676/18/199623.967XBT
1099254935.46729.4176/19/19965.983XBT
1099255135.01730.5006/19/199612.117XBT
1099255434.70031.4506/19/199618.000XBT
1099255634.50032.3836/19/199623.967XBT
1099257533.68332.8836/24/199618.117XBT
1099257732.48332.6176/25/19960.000XBT
1099258628.76732.9006/26/199618.233XBT
1099258827.68333.8676/27/19960.017XBT
1099258926.38334.6676/27/19966.233XBT
1099259025.15035.3506/27/199611.983XBT
1099259124.03336.1836/27/199617.900XBT
1099259223.01736.9836/27/199623.967XBT
1099259321.86737.5176/28/19966.067XBT
1099259420.86737.9676/28/199611.900XBT
1099259619.88338.4506/28/199618.067XBT
1099259718.91739.1676/28/199623.867XBT
1099259917.86739.9336/29/19965.983XBT
1099260216.91740.6176/29/199612.000XBT
1099260415.83341.3176/29/199618.217XBT
1099260614.76741.8676/30/19960.000XBT
1099260813.68342.4506/30/19965.950XBT
1099261012.86743.2506/30/199611.983XBT
1099261312.33344.0676/30/199618.033XBT
1099261512.55045.2507/1/19960.033XBT
1099261712.81746.5507/1/19965.983XBT
1099261813.00047.2837/1/199611.983XBT
1099262213.48348.1677/1/199617.933XBT
1099262613.90049.0837/1/199623.983XBT
1099262814.31749.9507/2/19966.033XBT
1099262914.63350.8507/2/199611.950XBT
1099263414.98351.8007/2/199618.017XBT
1099263515.28352.6837/2/199623.967XBT
1099263815.70053.5177/3/19966.000XBT
1099264116.28354.5337/3/199612.017XBT
1099264316.90055.7677/3/199618.100XBT
1099264617.40056.9677/4/19960.033XBT
1099264818.30057.9507/4/19966.000XBT


  Last modified:    Thu, 10-Dec-2009 21:04 UTC NCEI.info@noaa.gov
 
Dept. of Commerce - NOAA - NESDIS - NCEI
* Offsite Link Notification
USA.gov - The U.S. Government's Web Portal